TimeEDT,TemperatureF,Dew PointF,Humidity,Sea Level PressureIn,VisibilityMPH,Wind Direction,Wind SpeedMPH,Gust SpeedMPH,PrecipitationIn,Events,Conditions,WindDirDegrees,DateUTC
12:53 AM,66.0,64.9,96,29.91,7.0,WNW,4.6,-,N/A,,Mostly Cloudy,290,2013-07-11 04:53:00
1:48 AM,64.4,64.4,100,29.93,6.0,West,4.6,-,N/A,,Scattered Clouds,280,2013-07-11 05:48:00
1:53 AM,64.9,64.0,97,29.92,7.0,WNW,3.5,-,N/A,,Mostly Cloudy,290,2013-07-11 05:53:00
2:00 AM,64.4,64.4,100,29.93,9.0,WNW,4.6,-,N/A,,Scattered Clouds,290,2013-07-11 06:00:00
2:10 AM,64.4,64.4,100,29.93,9.0,NW,3.5,-,N/A,,Mostly Cloudy,310,2013-07-11 06:10:00
2:53 AM,64.9,64.0,97,29.92,7.0,WNW,5.8,-,N/A,,Overcast,300,2013-07-11 06:53:00
3:53 AM,66.0,64.0,93,29.92,6.0,Calm,Calm,-,N/A,,Overcast,0,2013-07-11 07:53:00
4:53 AM,66.0,64.0,93,29.94,10.0,West,4.6,-,N/A,,Overcast,270,2013-07-11 08:53:00
5:53 AM,66.0,64.0,93,29.95,8.0,WNW,3.5,-,N/A,,Overcast,290,2013-07-11 09:53:00
6:45 AM,66.2,64.4,94,29.98,7.0,WNW,4.6,-,N/A,,Overcast,290,2013-07-11 10:45:00
6:53 AM,66.0,64.0,93,29.98,6.0,WNW,3.5,-,N/A,,Overcast,290,2013-07-11 10:53:00
7:53 AM,66.9,64.9,93,29.99,6.0,NW,3.5,-,N/A,,Overcast,320,2013-07-11 11:53:00
8:20 AM,68.0,64.4,88,29.99,7.0,NNW,4.6,-,N/A,,Overcast,330,2013-07-11 12:20:00
8:30 AM,68.0,64.4,88,29.99,8.0,Variable,3.5,-,N/A,,Overcast,0,2013-07-11 12:30:00
8:39 AM,68.0,64.4,88,30.00,8.0,Variable,3.5,-,N/A,,Overcast,0,2013-07-11 12:39:00
8:53 AM,68.0,64.9,90,29.99,9.0,North,6.9,-,N/A,,Overcast,350,2013-07-11 12:53:00
9:15 AM,69.8,64.4,83,30.00,10.0,NNE,8.1,-,N/A,,Mostly Cloudy,20,2013-07-11 13:15:00
9:22 AM,69.8,64.4,83,30.00,10.0,Variable,5.8,-,N/A,,Mostly Cloudy,0,2013-07-11 13:22:00
9:53 AM,70.0,63.0,78,30.00,10.0,North,3.5,-,N/A,,Overcast,360,2013-07-11 13:53:00
10:53 AM,71.1,57.9,63,30.01,10.0,North,6.9,-,N/A,,Overcast,360,2013-07-11 14:53:00
11:53 AM,73.0,57.9,59,30.01,10.0,North,6.9,-,N/A,,Mostly Cloudy,350,2013-07-11 15:53:00
12:53 PM,75.0,59.0,57,30.00,10.0,Variable,3.5,-,N/A,,Clear,0,2013-07-11 16:53:00
1:53 PM,75.0,59.0,57,29.99,10.0,Calm,Calm,-,N/A,,Scattered Clouds,0,2013-07-11 17:53:00
2:53 PM,73.0,60.1,64,29.99,10.0,NNW,4.6,-,N/A,,Overcast,340,2013-07-11 18:53:00
3:53 PM,73.9,57.9,57,29.99,10.0,North,3.5,-,N/A,,Overcast,350,2013-07-11 19:53:00
4:53 PM,73.9,59.0,59,29.98,10.0,NNW,3.5,-,N/A,,Overcast,330,2013-07-11 20:53:00
5:53 PM,75.9,57.9,54,29.97,10.0,NNW,6.9,-,N/A,,Scattered Clouds,330,2013-07-11 21:53:00
6:53 PM,73.9,57.0,55,29.98,10.0,North,6.9,-,N/A,,Mostly Cloudy,360,2013-07-11 22:53:00
7:53 PM,73.0,55.9,55,29.99,10.0,North,5.8,-,N/A,,Clear,360,2013-07-11 23:53:00
8:53 PM,70.0,57.0,63,29.98,10.0,North,5.8,-,N/A,,Clear,350,2013-07-12 00:53:00
9:53 PM,68.0,55.9,65,29.99,10.0,North,4.6,-,N/A,,Clear,350,2013-07-12 01:53:00
10:53 PM,66.0,55.0,68,30.00,10.0,North,5.8,-,N/A,,Clear,360,2013-07-12 02:53:00
11:53 PM,66.0,55.0,68,30.01,10.0,North,3.5,-,N/A,,Clear,360,2013-07-12 03:53:00